Location: Bothwell
(41.7170°N, 112.2589°W)
Time: 14:56:39
(UTC+00:00)

Vanguard 2 - Pass Details

Date: 11 May 2026
Orbit: 553 x 2894 km, 32.9° (Epoch: 8 June)

Event Time Altitude Azimuth Distance (km) Brightness Sun altitude
Rises 16:03:16 0° 276° (W) 5,882 11.6 41.1°
Reaches altitude 10° 16:08:22 10° 266° (W) 4,469 11.1 42.0°
Maximum altitude 16:17:15 27° 216° (SW) 2,565 10.3 43.6°
Drops below altitude 10° 16:23:22 10° 162° (SSE) 2,988 11.1 44.7°
Sets 16:26:03 0° 149° (SSE) 3,660 11.5 45.2°
